[[{"header":{"parameterUnit":"m.s-1","parameterCategory":1,"la1":30.2991,"la2":30.254,"lo1":-89.0895,"lo2":-89.0444,"dx":0.0017,"dy":0.0017,"nx":28,"ny":28,"refTime":"2023-01-09T03:00:00:Z","depth":0,"parameterNumber":2,"parameterNumberName":"U-component_of_WINDS"},"data":[0,0,0,0,0,0,0,0,0,0,0,0,0,0,0,0,0,0,0,0,0,0,0,0,0,0,0,0,0,0,0,0,0,0,0,0,0,0,0,0,0,0,0,0,0,0,0,0,0,0,0,0,0,0,0,0,0,0,0.2095,0.2095,0,0.2124,0.2124,0.2125,0.2187,0.2188,0.2189,0.219,0.2217,0.2217,0.2216,0,0,0,0,0,0,0,0,0,0,0,0,0,0.209,0.209,0.2094,0.2095,0.2095,0.2124,0.2124,0.2125,0.2187,0.2188,0.219,0.2191,0.2217,0.2217,0.2216,0,0,0,0,0,0,0,0,0,0,0,0,0,0.2103,0.209,0.2094,0.213,0.2133,0.2124,0.2124,0.2125,0.2186,0.2188,0.219,0.2192,0.2218,0.2217,0.2216,0.2174,0,0,0.2214,0.2214,0,0,0,0,0,0,0,0,0.2102,0.2103,0.2124,0.2127,0.2131,0.2154,0.2133,0.2141,0.2186,0.2166,0.219,0.2193,0.2194,0.2196,0.2197,0.2175,0.2176,0.2214,0.2214,0.2213,0.2213,0,0,0,0,0,0,0,0.2101,0.2102,0.2106,0.2124,0.2129,0.2143,0.2147,0.2134,0.2169,0.2168,0.2172,0.2175,0.2197,0.2197,0.2198,0.2177,0.2214,0.2213,0.2213,0.2213,0.2122,0.212,0,0,0,0,0,0,0.2095,0.2101,0.2105,0.2107,0.2121,0.2142,0.2146,0.2144,0.2169,0.2175,0.2174,0.2178,0.2198,0.2199,0.2199,0.2151,0.2213,0.2213,0.2212,0.2124,0.2122,0.2119,0,0,0,0,0,0,0.2095,0.2095,0.2104,0.2105,0.2107,0.214,0.2137,0.2144,0.2145,0.2174,0.218,0.2168,0.2199,0.22,0.218,0.2153,0.2212,0.2212,0.2126,0.2123,0.2121,0.2054,0,0,0,0,0,0,0.2095,0.2095,0.2079,0.2104,0.2107,0.2085,0.2136,0.2143,0.2144,0.215,0.217,0.2175,0.2201,0.2181,0.2179,0.2153,0.2211,0.2129,0.2125,0.2122,0.2059,0.2049,0.2041,0,0,0,0,0,0.2094,0.2059,0.2078,0.2078,0.2089,0.2083,0.2084,0.2115,0.2142,0.2126,0.2145,0.2175,0.2157,0.2178,0.2177,0.215,0.2131,0.2126,0.2122,0.2063,0.2051,0.2041,0,0,0,0,0,0,0.2028,0.2062,0.2084,0.2056,0.2066,0.2094,0.2075,0.2102,0.2104,0.2109,0.2147,0.2151,0.2125,0.2136,0.216,0.2111,0.2148,0.2144,0.2104,0.2093,0.2084,0.2081,0.2211,0,0,0,0,0,0.201,0.2004,0.2034,0.2006,0.201,0.2042,0.204,0.2063,0.2075,0.2079,0.2096,0.2105,0.2102,0.2098,0.2097,0.2062,0.2066,0.2043,0.2034,0.2026,0.2021,0.2003,0.1992,0.2105,0.2105,0.2105,0,0,0.1973,0.1991,0.1985,0.1993,0.2004,0.1995,0.2045,0.2033,0.2027,0.2077,0.2059,0.2072,0.2085,0.2057,0.2046,0.2065,0.1991,0.2021,0.2014,0.2013,0.1997,0.1986,0.1977,0.2102,0.2102,0.2103,0,0,0.1901,0.1915,0.1893,0.1903,0.1919,0.194,0.1935,0.1958,0.1969,0.1952,0.199,0.1983,0.1976,0.1983,0.1986,0.1918,0.1946,0.1917,0.1869,0.1851,0.1842,0.1835,0.1809,0.18,0.1912,0.1912,0.1912,0,0.1852,0.1842,0.1878,0.1864,0.1867,0.1914,0.1891,0.1899,0.1913,0.1913,0.1936,0.1928,0.194,0.1914,0.1898,0.1899,0.1894,0.1914,0.1841,0.1834,0.1827,0.1803,0.1794,0.1908,0.1908,0.1909,0.1909,0,0.1781,0.1773,0.1753,0.1767,0.1768,0.1749,0.1782,0.1778,0.1802,0.1821,0.1803,0.1819,0.1821,0.1818,0.184,0.1795,0.1807,0.1835,0.1873,0.1812,0.179,0.1781,0.1903,0.1904,0.1905,0.1906,0,0,0.1665,0.1701,0.1692,0.1699,0.1721,0.1715,0.17,0.1703,0.1699,0.1708,0.1695,0.1689,0.1715,0.1718,0.1742,0.1726,0.1671,0.1756,0.1757,0.1739,0.1621,0.1599,0.1588,0.169,0.1689,0.1687,0.162,0,0.1597,0.1572,0.1605,0.1573,0.1566,0.1611,0.1598,0.1609,0.1627,0.1623,0.1642,0.1637,0.1672,0.1675,0.1661,0.168,0.1647,0.1686,0.1677,0.1676,0.167,0.1577,0.1553,0.1488,0.1612,0.161,0.1609,0,0.1512,0.1518,0.1486,0.1511,0.1509,0.1496,0.1502,0.1498,0.1512,0.1526,0.1531,0.156,0.1546,0.1585,0.1565,0.1591,0.1589,0.1598,0.1597,0.1595,0.1638,0.1571,0.1469,0.1458,0.1597,0.1598,0.1599,0,0.143,0.143,0.141,0.1415,0.1444,0.1433,0.1445,0.1461,0.1461,0.1467,0.1467,0.147,0.1472,0.1473,0.1502,0.1528,0.1479,0.152,0.1489,0.1488,0.1475,0.1475,0.1368,0.1476,0.1477,0.1477,0.1477,0,0.1348,0.1326,0.1374,0.1361,0.1338,0.1376,0.1352,0.1368,0.1382,0.1374,0.1413,0.1404,0.1444,0.1439,0.1462,0.1442,0.1442,0.1452,0.1458,0.1448,0.1446,0.1446,0.145,0.1474,0.1475,0.1475,0.1476,0,0.1251,0.1282,0.1264,0.1293,0.13,0.1281,0.1306,0.1296,0.1317,0.1305,0.1305,0.1337,0.1333,0.1364,0.1365,0.1381,0.1349,0.1363,0.1344,0.1348,0.1314,0.1316,0.1202,0.1189,0.1307,0.1306,0.1305,0,0.1196,0.118,0.1208,0.1206,0.1216,0.1211,0.1212,0.125,0.1249,0.1265,0.1252,0.1252,0.1253,0.1245,0.1268,0.127,0.1284,0.1244,0.1284,0.1274,0.1282,0.1281,0.128,0.1235,0.1233,0.1232,0.1231,0,0.1094,0.1111,0.1111,0.1117,0.1118,0.1124,0.1133,0.1128,0.1169,0.1166,0.1164,0.1165,0.1168,0.1166,0.1173,0.1184,0.1213,0.1219,0.1211,0.1199,0.1188,0.1192,0.1319,0.122,0.1222,0.1222,0.1223,0.1223,0.1015,0.1004,0.1022,0.1021,0.1032,0.104,0.1032,0.1053,0.1052,0.1057,0.108,0.1073,0.1088,0.11,0.1108,0.1103,0.1122,0.1112,0.1109,0.1105,0.1098,0.1191,0.1105,0.1105,0.1105,0.1105,0.1106,0,0.0915,0.093,0.0929,0.094,0.094,0.0971,0.0982,0.0979,0.0973,0.0986,0.0987,0.0984,0.0984,0.1008,0.101,0.1001,0.1015,0.1001,0.1001,0.1002,0.1082,0.1087,0.0989,0.0989,0.099,0.099,0.099,0.099,0.0862,0.0844,0.0863,0.0851,0.0866,0.086,0.0864,0.0871,0.0881,0.0877,0.0877,0.0893,0.091,0.0915,0.0916,0.0923,0.0921,0.0902,0.0913,0.0986,0.0997,0.1008,0.1013,0.0901,0.0901,0.0834,0.0834,0.0833]},{"header":{"parameterUnit":"m.s-1","parameterCategory":1,"la1":30.2991,"la2":30.254,"lo1":-89.0895,"lo2":-89.0444,"dx":0.0017,"dy":0.0017,"nx":28,"ny":28,"refTime":"2023-01-09T03:00:00:Z","depth":0,"parameterNumber":3,"parameterNumberName":"V-component_of_WINDS"},"data":[0,0,0,0,0,0,0,0,0,0,0,0,0,0,0,0,0,0,0,0,0,0,0,0,0,0,0,0,0,0,0,0,0,0,0,0,0,0,0,0,0,0,0,0,0,0,0,0,0,0,0,0,0,0,0,0,0,0,-4.9538,-4.9539,0,-4.9614,-4.9615,-4.9616,-4.9596,-4.9594,-4.9593,-4.9591,-4.9662,-4.9665,-4.9669,0,0,0,0,0,0,0,0,0,0,0,0,0,-4.937,-4.9374,-4.9538,-4.9539,-4.954,-4.9614,-4.9615,-4.9616,-4.9596,-4.9594,-4.9592,-4.9591,-4.9661,-4.9665,-4.9669,0,0,0,0,0,0,0,0,0,0,0,0,0,-4.9444,-4.9375,-4.9538,-4.9539,-4.954,-4.9614,-4.9615,-4.9616,-4.9596,-4.9594,-4.9592,-4.959,-4.966,-4.9665,-4.967,-4.9744,0,0,-4.9685,-4.9687,0,0,0,0,0,0,0,0,-4.944,-4.945,-4.9538,-4.9539,-4.954,-4.9593,-4.9582,-4.9659,-4.9597,-4.9575,-4.9591,-4.9589,-4.9641,-4.9647,-4.9666,-4.9748,-4.9751,-4.9685,-4.9688,-4.969,-4.9691,0,0,0,0,0,0,0,-4.9435,-4.9447,-4.9568,-4.9539,-4.9541,-4.9534,-4.9542,-4.9596,-4.9619,-4.9576,-4.9575,-4.9585,-4.9641,-4.9661,-4.9667,-4.9752,-4.9685,-4.9689,-4.9692,-4.9694,-4.9901,-4.9904,0,0,0,0,0,0,-4.943,-4.9443,-4.9565,-4.957,-4.9484,-4.9539,-4.9548,-4.9578,-4.9618,-4.9623,-4.9587,-4.9584,-4.9654,-4.9662,-4.967,-4.9762,-4.969,-4.9695,-4.9697,-4.9899,-4.9902,-4.9905,0,0,0,0,0,0,-4.9426,-4.9441,-4.9562,-4.9506,-4.9521,-4.9544,-4.9578,-4.9581,-4.9602,-4.9626,-4.963,-4.9604,-4.9652,-4.9663,-4.9727,-4.9764,-4.9697,-4.9701,-4.9896,-4.99,-4.9903,-4.9946,0,0,0,0,0,0,-4.9422,-4.944,-4.9469,-4.9507,-4.9524,-4.962,-4.9581,-4.9584,-4.9611,-4.9608,-4.9643,-4.9647,-4.9652,-4.972,-4.9732,-4.977,-4.9705,-4.9893,-4.9898,-4.9902,-4.9941,-4.9951,-4.9959,0,0,0,0,0,-4.9416,-4.9476,-4.9471,-4.9486,-4.9562,-4.9622,-4.9632,-4.9638,-4.9614,-4.9643,-4.966,-4.9646,-4.9758,-4.9727,-4.974,-4.978,-4.989,-4.9896,-4.9902,-4.9937,-4.9949,-4.9959,0,0,0,0,0,0,-4.9438,-4.9481,-4.9476,-4.9551,-4.9583,-4.9619,-4.9656,-4.9649,-4.9687,-4.9682,-4.9686,-4.9694,-4.9761,-4.9776,-4.974,-4.9856,-4.9821,-4.9829,-4.9843,-4.9854,-4.9863,-4.9857,-4.9709,0,0,0,0,0,-4.9453,-4.95,-4.9534,-4.9596,-4.9613,-4.9632,-4.9658,-4.9661,-4.9693,-4.9706,-4.9727,-4.9758,-4.9801,-4.9828,-4.9868,-4.9944,-4.9951,-4.9978,-4.9986,-4.9993,-5.0001,-5.0044,-5.0056,-4.9924,-4.9924,-4.9924,0,0,-4.9482,-4.9511,-4.954,-4.9602,-4.9627,-4.9675,-4.9643,-4.9694,-4.9729,-4.9713,-4.9776,-4.9793,-4.9827,-4.9898,-4.993,-4.9913,-5.0039,-5.0001,-5.0006,-5.001,-5.0051,-5.0063,-5.0074,-4.9928,-4.9927,-4.9926,0,0,-4.9559,-4.9586,-4.9642,-4.967,-4.971,-4.9723,-4.9737,-4.9774,-4.9785,-4.985,-4.9839,-4.988,-4.9953,-4.9979,-5.0001,-5.0092,-5.0081,-5.0105,-5.015,-5.0192,-5.0203,-5.0212,-5.0245,-5.0257,-5.0112,-5.0112,-5.0113,0,-4.9589,-4.9662,-4.9671,-4.9725,-4.9753,-4.9744,-4.9801,-4.9826,-4.9877,-4.9896,-4.9877,-4.997,-4.9992,-5.007,-5.0093,-5.0111,-5.0126,-5.0101,-5.0201,-5.021,-5.0219,-5.0251,-5.0263,-5.0115,-5.0115,-5.0115,-5.0114,0,-4.9698,-4.9749,-4.979,-4.9843,-4.9875,-4.993,-4.9946,-4.9977,-4.9978,-4.9992,-5.0058,-5.0086,-5.0132,-5.0151,-5.015,-5.0229,-5.0218,-5.02,-5.0165,-5.0234,-5.0264,-5.0277,-5.0119,-5.0118,-5.0117,-5.0117,0,0,-4.9789,-4.985,-4.9865,-4.989,-4.9936,-4.9975,-5.0029,-5.0078,-5.0106,-5.0141,-5.0187,-5.025,-5.0235,-5.0261,-5.0263,-5.03,-5.0372,-5.0278,-5.0278,-5.0295,-5.0462,-5.0476,-5.049,-5.0365,-5.0368,-5.037,-5.046,0,-4.9872,-4.9971,-4.9982,-5.007,-5.0118,-5.0112,-5.0159,-5.0192,-5.0207,-5.0249,-5.0264,-5.031,-5.0286,-5.0302,-5.0338,-5.0356,-5.0406,-5.0349,-5.0407,-5.0409,-5.0399,-5.0506,-5.052,-5.0603,-5.0472,-5.0473,-5.0475,0,-4.998,-5.0023,-5.0117,-5.0159,-5.018,-5.0223,-5.027,-5.031,-5.0347,-5.0355,-5.0387,-5.0385,-5.044,-5.0404,-5.048,-5.0442,-5.0466,-5.0478,-5.0482,-5.0487,-5.0446,-5.0514,-5.063,-5.0643,-5.0493,-5.0492,-5.0491,0,-5.0039,-5.012,-5.0188,-5.0209,-5.0259,-5.029,-5.0312,-5.0347,-5.0377,-5.0417,-5.0437,-5.0482,-5.0507,-5.0541,-5.0552,-5.0524,-5.0628,-5.0592,-5.0636,-5.0636,-5.0658,-5.0656,-5.078,-5.0673,-5.0673,-5.0673,-5.0673,0,-5.013,-5.0187,-5.0215,-5.0257,-5.0321,-5.0333,-5.0396,-5.0416,-5.0449,-5.0493,-5.0489,-5.053,-5.0542,-5.0585,-5.0593,-5.0656,-5.0666,-5.0674,-5.0676,-5.0675,-5.0674,-5.0691,-5.0685,-5.0676,-5.0675,-5.0675,-5.0674,0,-5.0206,-5.0227,-5.03,-5.0344,-5.0356,-5.0402,-5.0438,-5.0478,-5.0494,-5.055,-5.0564,-5.0588,-5.0639,-5.0654,-5.0713,-5.0719,-5.0793,-5.0788,-5.0781,-5.0781,-5.0825,-5.0821,-5.0964,-5.0983,-5.0864,-5.0865,-5.0866,0,-5.0262,-5.0307,-5.0357,-5.0389,-5.0413,-5.0462,-5.0494,-5.0508,-5.0541,-5.0588,-5.0622,-5.0673,-5.0715,-5.0796,-5.0818,-5.0864,-5.0861,-5.0908,-5.0867,-5.0866,-5.0863,-5.086,-5.0865,-5.0915,-5.0916,-5.0917,-5.0918,0,-5.0361,-5.037,-5.0417,-5.0469,-5.0508,-5.0549,-5.0587,-5.0612,-5.0632,-5.0668,-5.0723,-5.0755,-5.0819,-5.0869,-5.0917,-5.0937,-5.0931,-5.0931,-5.0944,-5.0943,-5.0938,-5.0943,-5.0803,-5.0927,-5.0926,-5.0926,-5.0925,-5.0925,-5.0429,-5.047,-5.0513,-5.0566,-5.0598,-5.0635,-5.0676,-5.0699,-5.0745,-5.08,-5.0805,-5.0863,-5.0901,-5.0965,-5.0988,-5.1033,-5.1019,-5.1037,-5.1042,-5.1046,-5.1051,-5.0931,-5.1041,-5.1041,-5.1041,-5.1041,-5.104,0,-5.0528,-5.0557,-5.0606,-5.0663,-5.0705,-5.0699,-5.0743,-5.0778,-5.083,-5.0867,-5.091,-5.0972,-5.1022,-5.105,-5.1099,-5.113,-5.1129,-5.1143,-5.114,-5.1146,-5.106,-5.1044,-5.1143,-5.1143,-5.1143,-5.1143,-5.1143,-5.1143,-5.0585,-5.0655,-5.067,-5.0755,-5.0782,-5.0842,-5.0868,-5.0902,-5.0932,-5.1004,-5.1047,-5.1066,-5.1099,-5.1151,-5.1197,-5.1203,-5.1222,-5.1238,-5.1243,-5.1162,-5.1151,-5.1141,-5.1127,-5.1242,-5.1242,-5.1325,-5.1326,-5.1326]}]]